This is the latest recevied weather packets stored in our database for station/object N2GWK. If no packets are shown the sender has not sent any weather packets the latest 10 day(s).
| Time | Temp. | Humidity | Pressure | Rain* | Wind** | Luminosity | Snow |
|---|---|---|---|---|---|---|---|
| 1777717533 | 3.33° C | 99% | 1017.5 hPa | 0 mm | - | - | - |
| 1777716938 | 2.78° C | 99% | 1017.4 hPa | 0 mm | - | - | - |
| 1777716321 | 2.78° C | 99% | 1017.4 hPa | 0 mm | - | - | - |
| 1777711522 | 3.33° C | 99% | 1017.6 hPa | 0 mm | - | - | - |
| 1777710319 | 3.33° C | 99% | 1017.4 hPa | 0 mm | - | - | - |
| 1777706729 | 4.44° C | 99% | 1017.6 hPa | 0 mm | - | - | - |
| 1777704321 | 4.44° C | 99% | 1017.4 hPa | 0 mm | - | - | - |
| 1777699523 | 5° C | 99% | 1018 hPa | 0 mm | - | - | - |
| 1777696529 | 5.56° C | 95% | 1017.9 hPa | 0 mm | - | - | - |
| 1777694722 | 6.11° C | 92% | 1018 hPa | 0 mm | - | - | - |
| 1777686918 | 10.56° C | 73% | 1017.6 hPa | 0 mm | - | - | - |
| 1777685724 | 11.11° C | 72% | 1017.1 hPa | 0 mm | - | - | - |
| 1777675519 | 17.22° C | 48% | 1014.9 hPa | 0 mm | - | - | - |
| 1777674350 | 17.78° C | 48% | 1014.7 hPa | 0 mm | - | - | - |
| 1777673123 | 18.33° C | 49% | 1014.7 hPa | 0 mm | - | - | - |
| 1777658128 | 17.22° C | 62% | 1015.4 hPa | 0 mm | - | - | - |
| 1777656343 | 17.22° C | 62% | 1015.4 hPa | 0 mm | - | - | - |
| 1777647316 | 15.56° C | 72% | 1014.7 hPa | 0 mm | - | - | - |
| 1777643737 | - | - | 1014.5 hPa | 0 mm | - | - | - |
| 1777638325 | 8.89° C | 87% | 1014.2 hPa | 0 mm | - | - | - |
| 1777637122 | 7.78° C | 93% | 1014.3 hPa | 0 mm | - | - | - |
| 1777634127 | 6.11° C | 94% | 1014.1 hPa | 0 mm | - | - | - |
| 1777622117 | 5.56° C | 97% | 1015.2 hPa | 0 mm | - | - | - |
| 1777620931 | 5.56° C | 95% | 1015.4 hPa | 0 mm | - | - | - |
| 1777619124 | 6.67° C | 89% | 1015.4 hPa | 0 mm | - | - | - |
* Rain latest hour (hover to see other rain measurements)
** Current wind speed in m/s (hover to see current wind gust speed)